This is the latest recevied weather packets stored in our database for station/object JF2ZGN-13. If no packets are shown the sender has not sent any weather packets the latest 10 day(s).
| Time | Temp. | Humidity | Pressure | Rain* | Wind** | Luminosity | Snow |
|---|---|---|---|---|---|---|---|
| 1777839309 | 16.67° C | 67% | 893.4 hPa | 15.49 mm | - | - | - |
| 1777838708 | 16.67° C | 71% | 893.8 hPa | 14.73 mm | - | - | - |
| 1777838108 | 16.67° C | 61% | 893.7 hPa | 13.97 mm | - | - | - |
| 1777837507 | 16.67° C | 65% | 893.7 hPa | 12.7 mm | - | - | - |
| 1777836907 | 16.67° C | 65% | 893.2 hPa | 11.94 mm | - | - | - |
| 1777836306 | 16.11° C | 62% | 892.7 hPa | 11.43 mm | - | - | - |
| 1777835706 | 16.11° C | 55% | 892.7 hPa | 10.92 mm | - | - | - |
| 1777835105 | 16.11° C | 64% | 893.8 hPa | 10.67 mm | - | - | - |
| 1777834505 | 16.11° C | 67% | 893.5 hPa | 9.91 mm | - | - | - |
| 1777833905 | 16.11° C | 66% | 893.9 hPa | 9.4 mm | - | - | - |
| 1777833304 | 16.11° C | 66% | 893.9 hPa | 8.89 mm | - | - | - |
| 1777832704 | 16.11° C | 65% | 894.6 hPa | 8.64 mm | - | - | - |
| 1777832103 | 15.56° C | 68% | 894.3 hPa | 8.13 mm | - | - | - |
| 1777831504 | 15.56° C | 67% | 894.2 hPa | 7.62 mm | - | - | - |
| 1777830902 | 15.56° C | 65% | 894.9 hPa | 7.11 mm | - | - | - |
| 1777830302 | 15.56° C | 66% | 895.2 hPa | 6.6 mm | - | - | - |
| 1777829702 | 15° C | 66% | 895.3 hPa | 6.35 mm | - | - | - |
| 1777829101 | 15° C | 58% | 894.3 hPa | 5.84 mm | - | - | - |
| 1777828501 | 14.44° C | 61% | 895.3 hPa | 5.59 mm | - | - | - |
| 1777827900 | 14.44° C | 63% | 895.8 hPa | 5.08 mm | - | - | - |
| 1777827300 | 13.89° C | 59% | 896.1 hPa | 4.57 mm | - | - | - |
| 1777826699 | 13.33° C | 55% | 896.1 hPa | 4.32 mm | - | - | - |
| 1777826099 | 12.78° C | 56% | 896.7 hPa | 3.81 mm | - | - | - |
| 1777825498 | 12.22° C | 55% | 897 hPa | 3.05 mm | - | - | - |
| 1777824898 | 12.22° C | 54% | 896.2 hPa | 2.79 mm | - | - | - |
* Rain since midnight (hover to see other rain measurements)
** Current wind speed in m/s (hover to see current wind gust speed)